Date String (YYYY-MM-DD hh:mm:ss) UTC,Instrument flags,Ambient pressure (hPa),Sample flow (lpm),Bypass flow (lpm),Sample temperature (°C),Ambient temperature (°C),ASC tube jacket temperature (°C),LED temperature (°C),Box temperature (°C),Sample RH (%),Span deviation,Mass concentration (μg/m³),Mass concentration (μg/m³),Mass concentration (μg/m³)
DateTimeUTC,F1_M11,P_M11,Q1_M11,Q2_M11,T1_M11,T2_M11,T3_M11,T4_M11,T5_M11,U1_M11,ZSPAN_M11,X2_M11,X0_M11,X1_M11
2021-08-27 03:00:00,,0828.1,4.99,0.00,29.5,26.3,00.0,38.6,30.9,21.1,0002.3,0006.20,0015.02,0005.13
2021-08-27 03:01:00,,0828.1,5.00,0.00,29.4,26.6,00.0,38.6,30.9,21.2,0002.2,0006.17,0015.02,0005.12
2021-08-27 03:02:00,,0828.1,5.01,0.00,29.4,27.0,00.0,38.5,31.0,21.3,0002.2,0006.16,0015.09,0005.13
2021-08-27 03:03:00,,0828.1,5.00,0.00,29.4,27.4,00.0,38.5,31.1,21.3,0002.1,0006.12,0014.57,0005.13
2021-08-27 03:04:00,,0828.2,5.00,0.00,29.4,27.7,00.0,38.5,31.2,21.3,0002.3,0006.11,0014.45,0005.13
2021-08-27 03:05:00,,0828.2,5.00,0.00,29.4,28.0,00.0,38.5,31.2,21.3,0002.1,0006.10,0014.48,0005.13
2021-08-27 03:06:00,,0828.2,5.00,0.00,29.5,28.2,00.0,38.5,31.3,21.3,0001.7,0006.14,0015.16,0005.14
2021-08-27 03:07:00,,0828.3,5.00,0.00,29.5,28.3,00.0,38.5,31.3,21.3,0001.6,0006.16,0015.95,0005.13
2021-08-27 03:08:00,,0828.3,5.00,0.00,29.5,28.5,00.0,38.5,31.4,21.3,0001.6,0006.10,0016.20,0005.11
2021-08-27 03:09:00,,0828.3,5.00,0.00,29.6,28.6,00.0,38.6,31.4,21.3,0001.3,0006.06,0015.81,0005.09
2021-08-27 03:10:00,,0828.4,5.00,0.00,29.6,28.7,00.0,38.6,31.5,21.3,0001.2,0006.00,0015.78,0005.08
2021-08-27 03:11:00,,0828.4,5.00,0.00,29.7,28.8,00.0,38.6,31.5,21.3,0001.7,0006.00,0017.53,0005.04
2021-08-27 03:12:00,,0828.4,5.00,0.00,29.7,28.8,00.0,38.6,31.6,21.4,0001.8,0006.01,0017.11,0005.04
2021-08-27 03:13:00,,0828.3,5.00,0.00,29.7,28.9,00.0,38.7,31.6,21.4,0001.8,0006.03,0017.56,0005.01
2021-08-27 03:14:00,,0828.4,5.02,0.00,29.8,28.5,00.0,38.7,31.5,21.4,0001.8,0006.06,0018.87,0005.00
2021-08-27 03:15:00,,0828.3,5.00,0.00,29.6,26.6,00.0,38.7,31.0,21.6,0001.7,0006.07,0019.91,0004.98
2021-08-27 03:16:00,,0828.3,5.01,0.00,29.5,26.2,00.0,38.7,30.9,21.8,0001.8,0006.07,0018.61,0004.95
2021-08-27 03:17:00,,0828.2,5.00,0.00,29.4,26.6,00.0,38.6,31.0,22.0,0001.7,0006.04,0018.01,0004.94
2021-08-27 03:18:00,,0828.3,4.98,0.00,29.4,27.0,00.0,38.6,31.0,22.1,0001.8,0006.04,0018.94,0004.94
2021-08-27 03:19:00,,0828.3,5.01,0.00,29.4,27.3,00.0,38.5,31.1,22.1,0001.9,0006.09,0018.87,0004.92
2021-08-27 03:20:00,,0828.3,5.00,0.00,29.4,27.7,00.0,38.5,31.2,22.2,0002.4,0006.11,0019.01,0004.91
2021-08-27 03:21:00,,0828.3,5.00,0.00,29.5,27.9,00.0,38.5,31.2,22.2,0002.2,0006.13,0019.22,0004.89
2021-08-27 03:22:00,,0828.4,5.01,0.00,29.5,28.1,00.0,38.5,31.3,22.2,0002.0,0006.14,0017.67,0004.88
2021-08-27 03:23:00,,0828.3,4.99,0.00,29.5,28.2,00.0,38.6,31.4,22.2,0002.0,0006.09,0017.48,0004.85
2021-08-27 03:24:00,,0828.4,4.99,0.00,29.5,28.4,00.0,38.6,31.4,22.2,0002.1,0006.04,0017.42,0004.82
2021-08-27 03:25:00,,0828.3,5.01,0.00,29.6,28.5,00.0,38.6,31.4,22.2,0002.1,0006.02,0016.14,0004.79
2021-08-27 03:26:00,,0828.3,5.00,0.00,29.6,28.6,00.0,38.6,31.5,22.1,0001.9,0005.99,0015.51,0004.77
2021-08-27 03:27:00,,0828.3,5.00,0.00,29.6,28.7,00.0,38.6,31.5,22.1,0001.8,0005.98,0015.62,0004.74
2021-08-27 03:28:00,,0828.3,5.00,0.00,29.7,28.8,00.0,38.6,31.6,22.0,0001.7,0005.95,0015.55,0004.71
2021-08-27 03:29:00,,0828.3,5.00,0.00,29.7,28.8,00.0,38.7,31.6,22.0,0001.6,0005.98,0014.18,0004.69
2021-08-27 03:30:00,,0828.4,5.00,0.00,29.8,28.9,00.0,38.7,31.7,21.9,0001.4,0005.96,0013.86,0004.68
2021-08-27 03:31:00,,0828.4,5.00,0.00,29.8,29.0,00.0,38.7,31.7,21.9,0001.0,0005.96,0014.01,0004.66
2021-08-27 03:32:00,,0828.4,5.01,0.00,29.8,27.8,00.0,38.7,31.3,21.9,0001.5,0005.95,0013.96,0004.65
2021-08-27 03:33:00,,0828.4,4.99,0.00,29.6,26.3,00.0,38.7,30.9,22.1,0001.4,0005.91,0014.01,0004.64
2021-08-27 03:34:00,,0828.4,5.01,0.00,29.5,26.3,00.0,38.7,30.9,22.2,0001.5,0005.90,0013.96,0004.61
2021-08-27 03:35:00,,0828.4,5.00,0.00,29.4,26.7,00.0,38.6,31.0,22.3,0001.5,0005.86,0013.19,0004.59
2021-08-27 03:36:00,,0828.4,5.01,0.00,29.4,27.1,00.0,38.6,31.0,22.3,0001.4,0005.79,0013.12,0004.56
2021-08-27 03:37:00,,0828.4,5.00,0.00,29.4,27.5,00.0,38.6,31.1,22.3,0001.6,0005.73,0012.24,0004.55
2021-08-27 03:38:00,,0828.4,4.99,0.00,29.5,27.8,00.0,38.6,31.2,22.3,0001.5,0005.68,0011.99,0004.54
2021-08-27 03:39:00,,0828.4,4.99,0.00,29.5,28.0,00.0,38.6,31.3,22.3,0001.5,0005.68,0012.79,0004.54
2021-08-27 03:40:00,,0828.4,5.01,0.00,29.5,28.2,00.0,38.6,31.3,22.2,0001.3,0005.63,0012.81,0004.53
2021-08-27 03:41:00,,0828.5,4.99,0.00,29.5,28.4,00.0,38.6,31.4,22.2,0001.4,0005.60,0013.76,0004.50
2021-08-27 03:42:00,,0828.5,4.99,0.00,29.6,28.5,00.0,38.6,31.4,22.1,0001.4,0005.56,0013.79,0004.48
2021-08-27 03:43:00,,0828.5,5.01,0.00,29.6,28.6,00.0,38.6,31.5,22.1,0000.8,0005.52,0014.33,0004.46
2021-08-27 03:44:00,,0828.5,5.00,0.00,29.7,28.7,00.0,38.6,31.5,21.9,0000.7,0005.46,0014.71,0004.43
2021-08-27 03:45:00,,0828.7,4.99,0.00,29.7,28.8,00.0,38.7,31.5,21.8,0000.6,0005.38,0014.55,0004.39
2021-08-27 03:46:00,,0828.9,5.02,0.00,29.7,28.9,00.0,38.7,31.6,21.8,0000.6,0005.34,0015.66,0004.37
2021-08-27 03:47:00,,0828.9,5.00,0.00,29.8,29.0,00.0,38.7,31.6,21.8,0000.3,0005.34,0016.27,0004.35
2021-08-27 03:48:00,,0828.5,5.00,0.00,29.8,29.0,00.0,38.7,31.7,21.7,-000.0,0005.31,0016.76,0004.30
2021-08-27 03:49:00,,0828.5,4.99,0.00,29.8,28.8,00.0,38.8,31.6,21.6,0000.2,0005.25,0016.63,0004.26
2021-08-27 03:50:00,,0828.5,5.00,0.00,29.7,27.1,00.0,38.7,31.2,21.7,0001.0,0005.19,0016.62,0004.21
2021-08-27 03:51:00,,0828.5,5.01,0.00,29.6,26.2,00.0,38.7,30.9,21.8,0001.5,0005.08,0017.21,0004.14
2021-08-27 03:52:00,,0828.4,5.00,0.00,29.5,26.5,00.0,38.7,31.0,21.9,0001.7,0004.95,0016.50,0004.09
2021-08-27 03:53:00,,0828.4,5.00,0.00,29.5,26.9,00.0,38.7,31.0,22.0,0001.8,0004.85,0016.37,0004.03
2021-08-27 03:54:00,,0828.5,5.01,0.00,29.5,27.3,00.0,38.7,31.1,21.9,0002.5,0004.77,0016.44,0003.96
2021-08-27 03:55:00,,0828.7,4.99,0.00,29.5,27.6,00.0,38.6,31.2,21.9,0002.5,0004.68,0015.54,0003.91
2021-08-27 03:56:00,,0828.8,4.99,0.00,29.5,27.9,00.0,38.6,31.2,22.0,0002.4,0004.64,0015.19,0003.88
2021-08-27 03:57:00,,0829.0,5.00,0.00,29.5,28.1,00.0,38.6,31.3,21.9,0002.0,0004.57,0014.08,0003.83
2021-08-27 03:58:00,,0829.1,4.99,0.00,29.5,28.3,00.0,38.6,31.3,22.0,0002.1,0004.49,0013.93,0003.78
2021-08-27 03:59:00,,0828.9,5.01,0.00,29.6,28.4,00.0,38.6,31.4,21.9,0002.3,0004.40,0014.70,0003.74
